Location: Dal�� Lhota
(48.7500°N, 14.0167°E)
Time: 16:49:09
(UTC+00:00)

Explorer 7 - Pass Details

Date: 03 August 2021
Orbit: 484 x 676 km, 50.3° (Epoch: 20 September)

Event Time Altitude Azimuth Distance (km) Brightness Sun altitude
Rises 02:05:48 0° 185° (S) 2,532 - -13.1°
Exits shadow 02:07:58 - 167° (SSE) 1,935 9.3 -12.9°
Reaches altitude 10° 02:09:46 10° 143° (SE) 1,672 9.2 -12.7°
Maximum altitude 02:10:24 10° 133° (SE) 1,654 9.3 -12.6°
Drops below altitude 10° 02:11:03 10° 123° (ESE) 1,681 9.4 -12.6°
Sets 02:15:06 0° 81° (E) 2,605 11.2 -12.1°
